Memphis, TN

1:06 AM CDT on September 25, 2017 (GMT -0500)
Memphis International

Weather History for KMEM - April, 2017

Change the Weather History Date:

Friday, April 21, 2017

  Actual Average Record
Temperature  
Mean Temperature 68 °F 65 °F  
Max Temperature 76 °F 75 °F 94 °F (1987)
Min Temperature 60 °F 55 °F 36 °F (1950)
Degree Days  
Heating Degree Days 0 3  
Month to date heating degree days 31 115  
Since 1 July heating degree days 2010 2923  
Cooling Degree Days 3 3  
Month to date cooling degree days 84 45  
Year to date cooling degree days 144 65  
Growing Degree Days 18 (Base 50)    
Moisture  
Dew Point 64 °F    
Average Humidity 90    
Maximum Humidity 100    
Minimum Humidity 79    
Precipitation  
Precipitation 0.39 in 0.19 in 1.92 in (1955)
Month to date precipitation 2.15 3.82  
Year to date precipitation 11.42 17.35  
Snow  
Snow 0.00 in 0.00 in - ()
Month to date snowfall 0.0 0.0  
Since 1 July snowfall 2.0 3.8  
Snow Depth 0.00 in    
Sea Level Pressure  
Sea Level Pressure 29.91 in    
Wind  
Wind Speed 8 mph (NNE)    
Max Wind Speed 21 mph    
Max Gust Speed 27 mph    
Visibility 10 miles    
Events Rain , Thunderstorm    
T = Trace of Precipitation, MM = Missing Value Source: NWS Daily Summary

Daily Weather History Graph

Daily Weather History Graph

Search for Another Location

Airport or City:

Trip Planner

Search our weather history database for the weather conditions in past years. The results will help you decide how hot, cold, wet, or windy it might be!

Date:

Astronomy

Apr. 21, 2017 Rise Set
Actual Time 6:20 AM CDT 7:37 PM CDT
Civil Twilight 5:53 AM CDT 8:04 PM CDT
Nautical Twilight 5:22 AM CDT 8:35 PM CDT
Astronomical Twilight 4:49 AM CDT 9:08 PM CDT
Moon 3:23 AM CDT (4/21) 2:34 PM CDT (4/21)
Length of Visible Light 14h 10m
Length of Day
13h 17m
Waning Crescent, 28% of the Moon is Illuminated
Apr 21
Waning Crescent
Apr 26
New
May 2
First Quarter
May 10
Full
May 18
Last Quarter

Hourly Weather History & Observations

Time (CDT) Temp. Dew Point Humidity Pressure Visibility Wind Dir Wind Speed Gust Speed Precip Events Conditions
12:54 AM 71.1 °F 66.0 °F 84% 29.99 in 10.0 mi SSW 8.1 mph 21.9 mph N/A   Partly Cloudy
1:54 AM 70.0 °F 66.0 °F 87% 29.96 in 10.0 mi SSW 6.9 mph - N/A   Partly Cloudy
2:54 AM 70.0 °F 66.0 °F 87% 29.95 in 10.0 mi SSW 8.1 mph - N/A   Clear
3:54 AM 70.0 °F 66.0 °F 87% 29.95 in 10.0 mi SW 6.9 mph - N/A   Clear
4:54 AM 68.0 °F 66.0 °F 93% 29.94 in 10.0 mi SSW 5.8 mph - N/A   Scattered Clouds
5:54 AM 68.0 °F 64.9 °F 90% 29.96 in 10.0 mi SW 4.6 mph - N/A   Mostly Cloudy
6:37 AM 68.0 °F 66.0 °F 93% 29.98 in 10.0 mi NNW 4.6 mph - N/A   Mostly Cloudy
6:54 AM 68.0 °F 66.0 °F 93% 29.97 in 10.0 mi Calm Calm - N/A   Mostly Cloudy
7:54 AM 71.1 °F 66.9 °F 87% 29.97 in 10.0 mi Variable 4.6 mph - N/A   Mostly Cloudy
8:54 AM 73.0 °F 68.0 °F 84% 29.96 in 10.0 mi SSW 9.2 mph - 0.00 in Rain Light Rain
9:26 AM 71.1 °F 69.1 °F 93% 29.96 in 10.0 mi SW 5.8 mph - 0.01 in   Overcast
9:54 AM 72.0 °F 69.1 °F 91% 29.94 in 10.0 mi SSW 3.5 mph - 0.01 in   Overcast
10:54 AM 75.0 °F 69.1 °F 82% 29.94 in 10.0 mi South 9.2 mph - N/A   Overcast
11:54 AM 73.9 °F 68.0 °F 82% 29.91 in 10.0 mi SSW 8.1 mph - N/A   Overcast
12:17 PM 72.0 °F 71.1 °F 97% 29.91 in 3.0 mi WSW 8.1 mph - 0.19 in Rain , Thunderstorm Light Rain
12:32 PM 69.1 °F 66.9 °F 93% 29.92 in 7.0 mi WSW 6.9 mph - 0.19 in Rain Rain
12:43 PM 69.1 °F 68.0 °F 96% 29.92 in 9.0 mi West 9.2 mph - 0.21 in Rain , Thunderstorm Light Rain
12:54 PM 66.9 °F 66.0 °F 97% 29.92 in 10.0 mi West 16.1 mph 24.2 mph 0.21 in Rain , Thunderstorm Light Rain
1:10 PM 64.0 °F 63.0 °F 96% 29.93 in 10.0 mi NNW 15.0 mph 26.5 mph 0.00 in Rain Light Rain
1:21 PM 66.0 °F 64.0 °F 93% 29.92 in 10.0 mi North 11.5 mph - 0.00 in   Overcast
1:54 PM 66.9 °F 64.0 °F 90% 29.91 in 10.0 mi North 6.9 mph - 0.00 in   Mostly Cloudy
2:46 PM 70.0 °F 64.0 °F 81% 29.91 in 10.0 mi NNE 6.9 mph - N/A   Mostly Cloudy
2:54 PM 71.1 °F 64.9 °F 81% 29.90 in 10.0 mi North 6.9 mph - N/A   Mostly Cloudy
3:01 PM 71.1 °F 64.9 °F 81% 29.89 in 10.0 mi NNE 9.2 mph - N/A   Mostly Cloudy
3:25 PM 71.1 °F 64.0 °F 78% 29.88 in 10.0 mi Variable 6.9 mph - N/A   Mostly Cloudy
3:38 PM 71.1 °F 64.0 °F 78% 29.87 in 10.0 mi NE 9.2 mph - N/A   Scattered Clouds
3:54 PM 72.0 °F 64.0 °F 76% 29.86 in 10.0 mi NE 8.1 mph - N/A   Partly Cloudy
4:54 PM 71.1 °F 64.0 °F 78% 29.88 in 10.0 mi North 8.1 mph - N/A   Mostly Cloudy
5:54 PM 66.9 °F 64.0 °F 90% 29.88 in 10.0 mi NNE 10.4 mph - 0.00 in Rain Light Rain
6:14 PM 66.9 °F 64.0 °F 90% 29.87 in 10.0 mi North 9.2 mph - 0.00 in   Scattered Clouds
6:37 PM 66.0 °F 62.1 °F 87% 29.89 in 10.0 mi NNW 16.1 mph 25.3 mph 0.00 in   Mostly Cloudy
6:54 PM 64.9 °F 61.0 °F 87% 29.89 in 10.0 mi North 12.7 mph 23.0 mph 0.00 in   Mostly Cloudy
7:32 PM 63.0 °F 60.1 °F 90% 29.87 in 10.0 mi ENE 9.2 mph - N/A   Scattered Clouds
7:54 PM 63.0 °F 60.1 °F 90% 29.87 in 10.0 mi NNE 10.4 mph - N/A   Scattered Clouds
8:48 PM 62.6 °F 60.8 °F 94% 29.90 in 10.0 mi NE 9.2 mph - N/A   Mostly Cloudy
8:54 PM 63.0 °F 60.1 °F 90% 29.89 in 10.0 mi NE 10.4 mph - N/A   Overcast
9:02 PM 63.0 °F 60.1 °F 90% 29.90 in 10.0 mi NE 10.4 mph - N/A   Overcast
9:54 PM 63.0 °F 60.1 °F 90% 29.86 in 10.0 mi ENE 10.4 mph - N/A   Overcast
10:46 PM 62.1 °F 60.1 °F 93% 29.86 in 10.0 mi ENE 13.8 mph - 0.00 in Thunderstorm Overcast
10:54 PM 62.1 °F 59.0 °F 90% 29.84 in 10.0 mi ENE 12.7 mph - 0.00 in Thunderstorm Overcast
11:07 PM 62.1 °F 60.1 °F 93% 29.87 in 9.0 mi ESE 6.9 mph - 0.00 in Rain , Thunderstorm Heavy Thunderstorms and Rain
11:14 PM 61.0 °F 60.1 °F 97% 29.86 in 2.5 mi NE 11.5 mph - 0.15 in Rain , Thunderstorm Heavy Thunderstorms and Rain
11:21 PM 61.0 °F 60.1 °F 97% 29.86 in 3.0 mi NE 8.1 mph - 0.17 in Rain , Thunderstorm Light Thunderstorms and Rain
11:33 PM 61.0 °F 60.1 °F 97% 29.84 in 9.0 mi ENE 10.4 mph - 0.17 in Thunderstorm Overcast
11:40 PM 61.0 °F 60.1 °F 97% 29.85 in 9.0 mi ENE 8.1 mph - 0.17 in   Overcast
11:54 PM 61.0 °F 60.1 °F 97% 29.84 in 10.0 mi ENE 8.1 mph - 0.17 in   Overcast